Location: Maccacari
(45.1333°N, 11.1333°E)
Time: 14:34:37
(UTC+00:00)

S-56A Canister/Altair - Pass Details

Date: 27 January 2021
Orbit: 631 x 2501 km, 38.9° (Epoch: 01 March)

Event Time Altitude Azimuth Distance (km) Brightness Sun altitude
Rises 01:26:00 0° 241° (WSW) 3,192 - -53.8°
Reaches altitude 10° 01:28:45 10° 231° (SW) 2,130 - -53.4°
Maximum altitude 01:32:55 32° 168° (SSE) 1,089 - -52.8°
Drops below altitude 10° 01:36:53 10° 104° (ESE) 2,025 - -52.2°
Sets 01:39:26 0° 95° (E) 3,008 - -51.9°
